Location: Miles
(41.4492°N, 81.6087°W)
Time: 19:51:41
(UTC+00:00)

Transit 2A - Pass Details

Date: 15 September 2024
Orbit: 590 x 960 km, 66.7° (Epoch: 05 October)

Event Time Altitude Azimuth Distance (km) Brightness Sun altitude
Rises 08:13:33 0° 333° (NNW) 3,641 9.6 -31.0°
Reaches altitude 10° 08:16:17 10° 339° (NNW) 2,673 8.9 -30.6°
Maximum altitude 08:22:19 47° 53° (NE) 1,192 7.3 -29.7°
Drops below altitude 10° 08:27:54 10° 126° (SE) 2,485 8.8 -28.8°
Sets 08:30:21 0° 132° (SE) 3,362 9.5 -28.5°
